Weather History for KCLM - May, 2014

Change the Weather History Date:

Tuesday, May 6, 2014

  Actual Average Record
Temperature  
Mean Temperature 52 °F -  
Max Temperature 57 °F 59 °F 77 °F (1953)
Min Temperature 46 °F 44 °F 34 °F (2000)
Degree Days  
Heating Degree Days 14    
Growing Degree Days 2 (Base 50)    
Moisture  
Dew Point 43 °F    
Average Humidity 69    
Maximum Humidity 86    
Minimum Humidity 58    
Precipitation  
Precipitation 0.00 in - - ()
Sea Level Pressure  
Sea Level Pressure 30.03 in    
Wind  
Wind Speed 10 mph (WNW)    
Max Wind Speed 14 mph    
Max Gust Speed 17 mph    
Visibility 10 miles    
Events      
Averages and records for this station are not official NWS values.
T = Trace of Precipitation, MM = Missing Value Source: NWS Daily Summary

Daily Weather History Graph

Daily Weather History Graph

Search for Another Location

Airport or City:

Trip Planner

Search our weather history database for the weather conditions in past years. The results will help you decide how hot, cold, wet, or windy it might be!

Date:

Astronomy

May. 06, 2014 Rise Set
Actual Time 5:47 AM PDT 8:34 PM PDT
Civil Twilight 5:11 AM PDT 9:10 PM PDT
Nautical Twilight 4:26 AM PDT 9:56 PM PDT
Astronomical Twilight 3:32 AM PDT 10:51 PM PDT
Moon 12:14 PM PDT (5/6) 1:51 AM PDT (5/6)
Length of Visible Light 15h 58m
Length of Day
14h 47m
Waxing Crescent, 47% of the Moon is Illuminated
May 6
Waxing Crescent
May 6
First Quarter
May 14
Full
May 21
Last Quarter
May 28
New

Hourly Weather History & Observations

Time (PDT) Temp. Dew Point Humidity Pressure Visibility Wind Dir Wind Speed Gust Speed Precip Events Conditions
4:53 AM 48.9 °F 39.9 °F 71% 30.04 in 10.0 mi WSW 12.7 mph - N/A   Overcast
5:53 AM 48.0 °F 39.9 °F 74% 30.04 in 10.0 mi West 11.5 mph - N/A   Overcast
7:53 AM 50.0 °F 39.9 °F 68% 30.04 in 10.0 mi West 6.9 mph - N/A   Clear
8:53 AM 54.0 °F 39.9 °F 59% 30.04 in 10.0 mi West 8.1 mph - N/A   Clear
9:53 AM 54.0 °F 42.1 °F 64% 30.04 in 10.0 mi NW 8.1 mph - N/A   Clear
10:53 AM 54.0 °F 43.0 °F 66% 30.04 in 10.0 mi NW 13.8 mph - N/A   Clear
11:53 AM 57.0 °F 46.0 °F 67% 30.04 in 10.0 mi NW 9.2 mph - N/A   Clear
12:53 PM 57.0 °F 44.1 °F 62% 30.04 in 10.0 mi NW 12.7 mph - N/A   Clear
1:53 PM 57.0 °F 44.1 °F 62% 30.04 in 10.0 mi NW 12.7 mph 17.3 mph N/A   Clear
2:53 PM 57.9 °F 45.0 °F 62% 30.04 in 10.0 mi WNW 11.5 mph - N/A   Mostly Cloudy
3:53 PM 57.0 °F 45.0 °F 64% 30.02 in 10.0 mi NW 9.2 mph - N/A   Clear
4:53 PM 57.9 °F 43.0 °F 58% 30.01 in 10.0 mi NW 9.2 mph - N/A   Clear
5:53 PM 55.9 °F 42.1 °F 60% 30.01 in 10.0 mi WNW 12.7 mph - N/A   Clear
6:53 PM 54.0 °F 43.0 °F 66% 30.02 in 10.0 mi WNW 9.2 mph - N/A   Clear
7:53 PM 52.0 °F 44.1 °F 74% 30.02 in 10.0 mi WNW 8.1 mph - N/A   Clear
8:53 PM 48.9 °F 43.0 °F 80% 30.03 in 10.0 mi West 8.1 mph - N/A   Clear
9:53 PM 48.9 °F 44.1 °F 83% 30.04 in 10.0 mi West 6.9 mph - N/A   Clear
10:53 PM 46.9 °F 43.0 °F 86% 30.04 in 10.0 mi WSW 5.8 mph - N/A   Clear
11:53 PM 46.9 °F 43.0 °F 86% 30.04 in 10.0 mi West 9.2 mph - N/A   Clear